Year,Month,Day,Hour,Minute,Value (Times are PST for temperature in C)
2008,05,17,00,00,16.70
2008,05,17,00,01,16.70
2008,05,17,00,02,16.70
2008,05,17,00,03,16.80
2008,05,17,00,04,16.80
2008,05,17,00,05,16.80
2008,05,17,00,06,16.80
2008,05,17,00,07,16.80
2008,05,17,00,08,16.70
2008,05,17,00,09,16.70
2008,05,17,00,10,16.70
2008,05,17,00,11,16.70
2008,05,17,00,12,16.70
2008,05,17,00,13,16.70
2008,05,17,00,14,16.70
2008,05,17,00,15,16.70
2008,05,17,00,16,16.70
2008,05,17,00,17,16.70
2008,05,17,00,18,16.70
2008,05,17,00,19,16.70
2008,05,17,00,20,16.70
2008,05,17,00,21,16.70
2008,05,17,00,22,16.70
2008,05,17,00,23,16.70
2008,05,17,00,24,16.70
2008,05,17,00,25,16.70
2008,05,17,00,26,16.70
2008,05,17,00,27,16.70
2008,05,17,00,28,16.70
2008,05,17,00,29,16.60
2008,05,17,00,30,16.60
2008,05,17,00,31,16.60
2008,05,17,00,32,16.60
2008,05,17,00,33,16.40
2008,05,17,00,34,16.40
2008,05,17,00,35,16.40
2008,05,17,00,36,16.40
2008,05,17,00,37,16.40
2008,05,17,00,38,16.50
2008,05,17,00,39,16.60
2008,05,17,00,40,16.60
2008,05,17,00,41,16.70
2008,05,17,00,42,16.70
2008,05,17,00,43,16.70
2008,05,17,00,44,16.70
2008,05,17,00,45,16.70
2008,05,17,00,46,16.70
2008,05,17,00,47,16.70
2008,05,17,00,48,16.70
2008,05,17,00,49,16.70
2008,05,17,00,50,16.70
2008,05,17,00,51,16.80
2008,05,17,00,52,16.80
2008,05,17,00,53,16.80
2008,05,17,00,54,16.80
2008,05,17,00,55,16.80
2008,05,17,00,56,16.80
2008,05,17,00,57,16.80
2008,05,17,00,58,16.80
2008,05,17,00,59,16.70
2008,05,17,01,00,16.70
2008,05,17,01,01,16.70
2008,05,17,01,02,16.70
2008,05,17,01,03,16.70
2008,05,17,01,04,16.70
2008,05,17,01,05,16.70
2008,05,17,01,06,16.70
2008,05,17,01,07,16.60
2008,05,17,01,08,16.60
2008,05,17,01,09,16.60
2008,05,17,01,10,16.70
2008,05,17,01,11,16.70
2008,05,17,01,12,16.70
2008,05,17,01,13,16.70
2008,05,17,01,14,16.70
2008,05,17,01,15,16.70
2008,05,17,01,16,16.70
2008,05,17,01,17,16.70
2008,05,17,01,18,16.70
2008,05,17,01,19,16.70
2008,05,17,01,20,16.70
2008,05,17,01,21,16.70
2008,05,17,01,22,16.70
2008,05,17,01,23,16.70
2008,05,17,01,24,16.70
2008,05,17,01,25,16.70
2008,05,17,01,26,16.70
2008,05,17,01,27,16.70
2008,05,17,01,28,16.70
2008,05,17,01,29,16.70
2008,05,17,01,30,16.70
2008,05,17,01,31,16.70
2008,05,17,01,32,16.70
2008,05,17,01,33,16.70
2008,05,17,01,34,16.70
2008,05,17,01,35,16.70
2008,05,17,01,36,16.70
2008,05,17,01,37,16.60
2008,05,17,01,38,16.60
2008,05,17,01,39,16.60
2008,05,17,01,40,16.60
2008,05,17,01,41,16.60
2008,05,17,01,42,16.50
2008,05,17,01,43,16.40
2008,05,17,01,44,16.40
2008,05,17,01,45,16.40
2008,05,17,01,46,16.40
2008,05,17,01,47,16.40
2008,05,17,01,48,16.40
2008,05,17,01,49,16.40
2008,05,17,01,50,16.40
2008,05,17,01,51,16.30
2008,05,17,01,52,16.30
2008,05,17,01,53,16.30
2008,05,17,01,54,16.30
2008,05,17,01,55,16.40
2008,05,17,01,56,16.40
2008,05,17,01,57,16.40
2008,05,17,01,58,16.40
2008,05,17,01,59,16.40
2008,05,17,02,00,16.40
2008,05,17,02,01,16.40
2008,05,17,02,02,16.40
2008,05,17,02,03,16.40
2008,05,17,02,04,16.40
2008,05,17,02,05,16.40
2008,05,17,02,06,16.40
2008,05,17,02,07,16.40
2008,05,17,02,08,16.40
2008,05,17,02,09,16.40
2008,05,17,02,10,16.30
2008,05,17,02,11,16.30
2008,05,17,02,12,16.30
2008,05,17,02,13,16.30
2008,05,17,02,14,16.30
2008,05,17,02,15,16.20
2008,05,17,02,16,16.20
2008,05,17,02,17,16.20
2008,05,17,02,18,16.20
2008,05,17,02,19,16.20
2008,05,17,02,20,16.20
2008,05,17,02,21,16.20
2008,05,17,02,22,16.20
2008,05,17,02,23,16.10
2008,05,17,02,24,16.10
2008,05,17,02,25,16.10
2008,05,17,02,26,16.10
2008,05,17,02,27,16.10
2008,05,17,02,28,16.10
2008,05,17,02,29,16.00
2008,05,17,02,30,15.90
2008,05,17,02,31,15.90
2008,05,17,02,32,15.90
2008,05,17,02,33,15.80
2008,05,17,02,34,15.80
2008,05,17,02,35,15.80
2008,05,17,02,36,15.80
2008,05,17,02,37,15.80
2008,05,17,02,38,15.80
2008,05,17,02,39,15.70
2008,05,17,02,40,15.70
2008,05,17,02,41,15.70
2008,05,17,02,42,15.60
2008,05,17,02,43,15.60
2008,05,17,02,44,15.60
2008,05,17,02,45,15.60
2008,05,17,02,46,15.60
2008,05,17,02,47,15.60
2008,05,17,02,48,15.50
2008,05,17,02,49,15.50
2008,05,17,02,50,15.50
2008,05,17,02,51,15.50
2008,05,17,02,52,15.50
2008,05,17,02,53,15.50
2008,05,17,02,54,15.50
2008,05,17,02,55,15.50
2008,05,17,02,56,15.50
2008,05,17,02,57,15.50
2008,05,17,02,58,15.50
2008,05,17,02,59,15.50
2008,05,17,03,00,15.50
2008,05,17,03,01,15.50
2008,05,17,03,02,15.50
2008,05,17,03,03,15.50
2008,05,17,03,04,15.50
2008,05,17,03,05,15.50
2008,05,17,03,06,15.40
2008,05,17,03,07,15.40
2008,05,17,03,08,15.40
2008,05,17,03,09,15.40
2008,05,17,03,10,15.40
2008,05,17,03,11,15.40
2008,05,17,03,12,15.40
2008,05,17,03,13,15.40
2008,05,17,03,14,15.40
2008,05,17,03,15,15.40
2008,05,17,03,16,15.40
2008,05,17,03,17,15.40
2008,05,17,03,18,15.40
2008,05,17,03,19,15.40
2008,05,17,03,20,15.40
2008,05,17,03,21,15.40
2008,05,17,03,22,15.40
2008,05,17,03,23,15.40
2008,05,17,03,24,15.40
2008,05,17,03,25,15.40
2008,05,17,03,26,15.40
2008,05,17,03,27,15.40
2008,05,17,03,28,15.40
2008,05,17,03,29,15.50
2008,05,17,03,30,15.50
2008,05,17,03,31,15.50
2008,05,17,03,32,15.50
2008,05,17,03,33,15.50
2008,05,17,03,34,15.50
2008,05,17,03,35,15.50
2008,05,17,03,36,15.50
2008,05,17,03,37,15.60
2008,05,17,03,38,15.60
2008,05,17,03,39,15.60
2008,05,17,03,40,15.60
2008,05,17,03,41,15.70
2008,05,17,03,42,15.70
2008,05,17,03,43,15.70
2008,05,17,03,44,15.70
2008,05,17,03,45,15.70
2008,05,17,03,46,15.70
2008,05,17,03,47,15.70
2008,05,17,03,48,15.70
2008,05,17,03,49,15.70
2008,05,17,03,50,15.80
2008,05,17,03,51,15.80
2008,05,17,03,52,15.80
2008,05,17,03,53,15.80
2008,05,17,03,54,15.80
2008,05,17,03,55,15.80
2008,05,17,03,56,15.80
2008,05,17,03,57,15.80
2008,05,17,03,58,15.80
2008,05,17,03,59,15.70
2008,05,17,04,00,15.70
2008,05,17,04,01,15.70
2008,05,17,04,02,15.60
2008,05,17,04,03,15.60
2008,05,17,04,04,15.60
2008,05,17,04,05,15.60
2008,05,17,04,06,15.60
2008,05,17,04,07,15.50
2008,05,17,04,08,15.50
2008,05,17,04,09,15.50
2008,05,17,04,10,15.50
2008,05,17,04,11,15.40
2008,05,17,04,12,15.40
2008,05,17,04,13,15.40
2008,05,17,04,14,15.30
2008,05,17,04,15,15.30
2008,05,17,04,16,15.40
2008,05,17,04,17,15.30
2008,05,17,04,18,15.30
2008,05,17,04,19,15.30
2008,05,17,04,20,15.30
2008,05,17,04,21,15.30
2008,05,17,04,22,15.30
2008,05,17,04,23,15.30
2008,05,17,04,24,15.30
2008,05,17,04,25,15.30
2008,05,17,04,26,15.30
2008,05,17,04,27,15.30
2008,05,17,04,28,15.30
2008,05,17,04,29,15.30
2008,05,17,04,30,15.30
2008,05,17,04,31,15.30
2008,05,17,04,32,15.30
2008,05,17,04,33,15.30
2008,05,17,04,34,15.30
2008,05,17,04,35,15.30
2008,05,17,04,36,15.30
2008,05,17,04,37,15.30
2008,05,17,04,38,15.30
2008,05,17,04,39,15.30
2008,05,17,04,40,15.30
2008,05,17,04,41,15.30
2008,05,17,04,42,15.30
2008,05,17,04,43,15.30
2008,05,17,04,44,15.30
2008,05,17,04,45,15.30
2008,05,17,04,46,15.30
2008,05,17,04,47,15.30
2008,05,17,04,48,15.30
2008,05,17,04,49,15.30
2008,05,17,04,50,15.30
2008,05,17,04,51,15.30
2008,05,17,04,52,15.30
2008,05,17,04,53,15.30
2008,05,17,04,54,15.30
2008,05,17,04,55,15.30
2008,05,17,04,56,15.30
2008,05,17,04,57,15.30
2008,05,17,04,58,15.30
2008,05,17,04,59,15.30
2008,05,17,05,00,15.30
2008,05,17,05,01,15.30
2008,05,17,05,02,15.30
2008,05,17,05,03,15.30
2008,05,17,05,04,15.30
2008,05,17,05,05,15.30
2008,05,17,05,06,15.30
2008,05,17,05,07,15.30
2008,05,17,05,08,15.30
2008,05,17,05,09,15.30
2008,05,17,05,10,15.30
2008,05,17,05,11,15.30
2008,05,17,05,12,15.30
2008,05,17,05,13,15.30
2008,05,17,05,14,15.30
2008,05,17,05,15,15.30
2008,05,17,05,16,15.30
2008,05,17,05,17,15.30
2008,05,17,05,18,15.30
2008,05,17,05,19,15.30
2008,05,17,05,20,15.30
2008,05,17,05,21,15.30
2008,05,17,05,22,15.30
2008,05,17,05,23,15.30
2008,05,17,05,24,15.30
2008,05,17,05,25,15.30
2008,05,17,05,26,15.30
2008,05,17,05,27,15.30
2008,05,17,05,28,15.30
2008,05,17,05,29,15.30
2008,05,17,05,30,15.40
2008,05,17,05,31,15.40
2008,05,17,05,32,15.40
2008,05,17,05,33,15.40
2008,05,17,05,34,15.40
2008,05,17,05,35,15.40
2008,05,17,05,36,15.40
2008,05,17,05,37,15.40
2008,05,17,05,38,15.40
2008,05,17,05,39,15.40
2008,05,17,05,40,15.40
2008,05,17,05,41,15.40
2008,05,17,05,42,15.40
2008,05,17,05,43,15.40
2008,05,17,05,44,15.40
2008,05,17,05,45,15.40
2008,05,17,05,46,15.40
2008,05,17,05,47,15.40
2008,05,17,05,48,15.30
2008,05,17,05,49,15.30
2008,05,17,05,50,15.30
2008,05,17,05,51,15.30
2008,05,17,05,52,15.40
2008,05,17,05,53,15.40
2008,05,17,05,54,15.40
2008,05,17,05,55,15.40
2008,05,17,05,56,15.40
2008,05,17,05,57,15.40
2008,05,17,05,58,15.40
2008,05,17,05,59,15.40
2008,05,17,06,00,15.40
2008,05,17,06,01,15.40
2008,05,17,06,02,15.40
2008,05,17,06,03,15.50
2008,05,17,06,04,15.50
2008,05,17,06,05,15.60
2008,05,17,06,06,15.60
2008,05,17,06,07,15.60
2008,05,17,06,08,15.70
2008,05,17,06,09,15.70
2008,05,17,06,10,15.80
2008,05,17,06,11,15.80
2008,05,17,06,12,15.80
2008,05,17,06,13,15.80
2008,05,17,06,14,15.80
2008,05,17,06,15,15.90
2008,05,17,06,16,16.00
2008,05,17,06,17,16.10
2008,05,17,06,18,16.10
2008,05,17,06,19,16.10
2008,05,17,06,20,16.20
2008,05,17,06,21,16.20
2008,05,17,06,22,16.20
2008,05,17,06,23,16.30
2008,05,17,06,24,16.30
2008,05,17,06,25,16.30
2008,05,17,06,26,16.40
2008,05,17,06,27,16.40
2008,05,17,06,28,16.40
2008,05,17,06,29,16.40
2008,05,17,06,30,16.50
2008,05,17,06,31,16.60
2008,05,17,06,32,16.60
2008,05,17,06,33,16.60
2008,05,17,06,34,16.70
2008,05,17,06,35,16.70
2008,05,17,06,36,16.70
2008,05,17,06,37,16.70
2008,05,17,06,38,16.70
2008,05,17,06,39,16.70
2008,05,17,06,40,16.80
2008,05,17,06,41,16.80
2008,05,17,06,42,16.90
2008,05,17,06,43,16.90
2008,05,17,06,44,16.90
2008,05,17,06,45,16.90
2008,05,17,06,46,17.00
2008,05,17,06,47,17.00
2008,05,17,06,48,17.00
2008,05,17,06,49,17.10
2008,05,17,06,50,17.10
2008,05,17,06,51,17.20
2008,05,17,06,52,17.20
2008,05,17,06,53,17.20
2008,05,17,06,54,17.30
2008,05,17,06,55,17.30
2008,05,17,06,56,17.30
2008,05,17,06,57,17.40
2008,05,17,06,58,17.40
2008,05,17,06,59,17.50
2008,05,17,07,00,17.50
2008,05,17,07,01,17.50
2008,05,17,07,02,17.60
2008,05,17,07,03,17.70
2008,05,17,07,04,17.70
2008,05,17,07,05,17.70
2008,05,17,07,06,17.80
2008,05,17,07,07,17.90
2008,05,17,07,08,17.90
2008,05,17,07,09,18.00
2008,05,17,07,10,18.10
2008,05,17,07,11,18.10
2008,05,17,07,12,18.20
2008,05,17,07,13,18.20
2008,05,17,07,14,18.20
2008,05,17,07,15,18.30
2008,05,17,07,16,18.30
2008,05,17,07,17,18.40
2008,05,17,07,18,18.40
2008,05,17,07,19,18.50
2008,05,17,07,20,18.50
2008,05,17,07,21,18.60
2008,05,17,07,22,18.60
2008,05,17,07,23,18.70
2008,05,17,07,24,18.70
2008,05,17,07,25,18.70
2008,05,17,07,26,18.80
2008,05,17,07,27,18.80
2008,05,17,07,28,18.80
2008,05,17,07,29,18.90
2008,05,17,07,30,18.90
2008,05,17,07,31,18.90
2008,05,17,07,32,18.90
2008,05,17,07,33,18.90
2008,05,17,07,34,18.90
2008,05,17,07,35,18.90
2008,05,17,07,36,18.90
2008,05,17,07,37,18.90
2008,05,17,07,38,18.90
2008,05,17,07,39,18.90
2008,05,17,07,40,18.90
2008,05,17,07,41,18.80
2008,05,17,07,42,18.80
2008,05,17,07,43,18.80
2008,05,17,07,44,18.80
2008,05,17,07,45,18.80
2008,05,17,07,46,18.80
2008,05,17,07,47,18.90
2008,05,17,07,48,18.90
2008,05,17,07,49,18.90
2008,05,17,07,50,18.90
2008,05,17,07,51,18.90
2008,05,17,07,52,18.90
2008,05,17,07,53,18.90
2008,05,17,07,54,18.90
2008,05,17,07,55,18.90
2008,05,17,07,56,18.90
2008,05,17,07,57,18.80
2008,05,17,07,58,18.80
2008,05,17,07,59,18.80
2008,05,17,08,00,18.80
2008,05,17,08,01,18.80
2008,05,17,08,02,18.80
2008,05,17,08,03,18.80
2008,05,17,08,04,18.80
2008,05,17,08,05,18.80
2008,05,17,08,06,18.70
2008,05,17,08,07,18.70
2008,05,17,08,08,18.70
2008,05,17,08,09,18.70
2008,05,17,08,10,18.70
2008,05,17,08,11,18.80
2008,05,17,08,12,18.80
2008,05,17,08,13,18.80
2008,05,17,08,14,18.80
2008,05,17,08,15,18.80
2008,05,17,08,16,18.80
2008,05,17,08,17,18.80
2008,05,17,08,18,18.80
2008,05,17,08,19,18.80
2008,05,17,08,20,18.90
2008,05,17,08,21,18.90
2008,05,17,08,22,19.00
2008,05,17,08,23,19.10
2008,05,17,08,24,19.10
2008,05,17,08,25,19.20
2008,05,17,08,26,19.30
2008,05,17,08,27,19.40
2008,05,17,08,28,19.40
2008,05,17,08,29,19.50
2008,05,17,08,30,19.60
2008,05,17,08,31,19.70
2008,05,17,08,32,19.80
2008,05,17,08,33,19.90
2008,05,17,08,34,19.90
2008,05,17,08,35,20.10
2008,05,17,08,36,20.20
2008,05,17,08,37,20.30
2008,05,17,08,38,20.30
2008,05,17,08,39,20.30
2008,05,17,08,40,20.30
2008,05,17,08,41,20.30
2008,05,17,08,42,20.20
2008,05,17,08,43,20.20
2008,05,17,08,44,20.20
2008,05,17,08,45,20.20
2008,05,17,08,46,20.20
2008,05,17,08,47,20.20
2008,05,17,08,48,20.20
2008,05,17,08,49,20.20
2008,05,17,08,50,20.20
2008,05,17,08,51,20.30
2008,05,17,08,52,20.40
2008,05,17,08,53,20.50
2008,05,17,08,54,20.50
2008,05,17,08,55,20.50
2008,05,17,08,56,20.50
2008,05,17,08,57,20.50
2008,05,17,08,58,20.50
2008,05,17,08,59,20.50
2008,05,17,09,00,20.40
2008,05,17,09,01,20.40
2008,05,17,09,02,20.40
2008,05,17,09,03,20.30
2008,05,17,09,04,20.30
2008,05,17,09,05,20.20
2008,05,17,09,06,20.20
2008,05,17,09,07,20.20
2008,05,17,09,08,20.20
2008,05,17,09,09,20.20
2008,05,17,09,10,20.30
2008,05,17,09,11,20.30
2008,05,17,09,12,20.40
2008,05,17,09,13,20.40
2008,05,17,09,14,20.50
2008,05,17,09,15,20.60
2008,05,17,09,16,20.60
2008,05,17,09,17,20.60
2008,05,17,09,18,20.60
2008,05,17,09,19,20.60
2008,05,17,09,20,20.60
2008,05,17,09,21,20.70
2008,05,17,09,22,20.80
2008,05,17,09,23,20.80
2008,05,17,09,24,20.70
2008,05,17,09,25,20.70
2008,05,17,09,26,20.60
2008,05,17,09,27,20.50
2008,05,17,09,28,20.40
2008,05,17,09,29,20.20
2008,05,17,09,30,20.20
2008,05,17,09,31,20.20
2008,05,17,09,32,20.20
2008,05,17,09,33,20.20
2008,05,17,09,34,20.10
2008,05,17,09,35,20.00
2008,05,17,09,36,19.90
2008,05,17,09,37,20.00
2008,05,17,09,38,20.10
2008,05,17,09,39,20.20
2008,05,17,09,40,20.20
2008,05,17,09,41,20.20
2008,05,17,09,42,20.10
2008,05,17,09,43,20.10
2008,05,17,09,44,20.20
2008,05,17,09,45,20.30
2008,05,17,09,46,20.40
2008,05,17,09,47,20.40
2008,05,17,09,48,20.40
2008,05,17,09,49,20.40
2008,05,17,09,50,20.50
2008,05,17,09,51,20.60
2008,05,17,09,52,20.60
2008,05,17,09,53,20.50
2008,05,17,09,54,20.40
2008,05,17,09,55,20.40
2008,05,17,09,56,20.50
2008,05,17,09,57,20.60
2008,05,17,09,58,20.70
2008,05,17,09,59,20.70
2008,05,17,10,00,20.60
2008,05,17,10,01,20.50
2008,05,17,10,02,20.50
2008,05,17,10,03,20.50
2008,05,17,10,04,20.50
2008,05,17,10,05,20.40
2008,05,17,10,06,20.50
2008,05,17,10,07,20.50
2008,05,17,10,08,20.50
2008,05,17,10,09,20.50
2008,05,17,10,10,20.50
2008,05,17,10,11,20.50
2008,05,17,10,12,20.60
2008,05,17,10,13,20.70
2008,05,17,10,14,20.80
2008,05,17,10,15,20.90
2008,05,17,10,16,20.80
2008,05,17,10,17,20.90
2008,05,17,10,18,20.80
2008,05,17,10,19,20.80
2008,05,17,10,20,20.80
2008,05,17,10,21,20.80
2008,05,17,10,22,20.80
2008,05,17,10,23,20.90
2008,05,17,10,24,20.90
2008,05,17,10,25,21.00
2008,05,17,10,26,21.00
2008,05,17,10,27,21.10
2008,05,17,10,28,21.20
2008,05,17,10,29,21.20
2008,05,17,10,30,21.10
2008,05,17,10,31,21.10
2008,05,17,10,32,21.10
2008,05,17,10,33,21.10
2008,05,17,10,34,21.20
2008,05,17,10,35,21.20
2008,05,17,10,36,21.30
2008,05,17,10,37,21.20
2008,05,17,10,38,21.10
2008,05,17,10,39,21.00
2008,05,17,10,40,20.90
2008,05,17,10,41,20.90
2008,05,17,10,42,21.00
2008,05,17,10,43,21.00
2008,05,17,10,44,21.10
2008,05,17,10,45,21.00
2008,05,17,10,46,21.00
2008,05,17,10,47,20.90
2008,05,17,10,48,20.80
2008,05,17,10,49,20.70
2008,05,17,10,50,20.70
2008,05,17,10,51,20.70
2008,05,17,10,52,20.70
2008,05,17,10,53,20.80
2008,05,17,10,54,20.80
2008,05,17,10,55,20.90
2008,05,17,10,56,20.90
2008,05,17,10,57,20.90
2008,05,17,10,58,20.80
2008,05,17,10,59,20.80
2008,05,17,11,00,20.90
2008,05,17,11,01,21.00
2008,05,17,11,02,20.90
2008,05,17,11,03,20.90
2008,05,17,11,04,20.90
2008,05,17,11,05,20.80
2008,05,17,11,06,20.80
2008,05,17,11,07,20.70
2008,05,17,11,08,20.60
2008,05,17,11,09,20.50
2008,05,17,11,10,20.60
2008,05,17,11,11,20.60
2008,05,17,11,12,20.60
2008,05,17,11,13,20.60
2008,05,17,11,14,20.70
2008,05,17,11,15,20.80
2008,05,17,11,16,20.90
2008,05,17,11,17,21.00
2008,05,17,11,18,21.00
2008,05,17,11,19,21.00
2008,05,17,11,20,21.00
2008,05,17,11,21,21.10
2008,05,17,11,22,21.10
2008,05,17,11,23,21.20
2008,05,17,11,24,21.30
2008,05,17,11,25,21.30
2008,05,17,11,26,21.30
2008,05,17,11,27,21.20
2008,05,17,11,28,21.20
2008,05,17,11,29,21.20
2008,05,17,11,30,21.20
2008,05,17,11,31,21.10
2008,05,17,11,32,21.00
2008,05,17,11,33,21.00
2008,05,17,11,34,21.00
2008,05,17,11,35,21.00
2008,05,17,11,36,21.00
2008,05,17,11,37,21.00
2008,05,17,11,38,21.00
2008,05,17,11,39,21.00
2008,05,17,11,40,21.00
2008,05,17,11,41,21.10
2008,05,17,11,42,21.10
2008,05,17,11,43,21.10
2008,05,17,11,44,21.00
2008,05,17,11,45,21.10
2008,05,17,11,46,21.10
2008,05,17,11,47,21.10
2008,05,17,11,48,21.20
2008,05,17,11,49,21.30
2008,05,17,11,50,21.50
2008,05,17,11,51,21.60
2008,05,17,11,52,21.60
2008,05,17,11,53,21.60
2008,05,17,11,54,21.60
2008,05,17,11,55,21.60
2008,05,17,11,56,21.70
2008,05,17,11,57,21.70
2008,05,17,11,58,21.60
2008,05,17,11,59,21.50
2008,05,17,12,00,21.30
2008,05,17,12,01,21.30
2008,05,17,12,02,21.30
2008,05,17,12,03,21.40
2008,05,17,12,04,21.40
2008,05,17,12,05,21.40
2008,05,17,12,06,21.50
2008,05,17,12,07,21.60
2008,05,17,12,08,21.60
2008,05,17,12,09,21.60
2008,05,17,12,10,21.50
2008,05,17,12,11,21.40
2008,05,17,12,12,21.30
2008,05,17,12,13,21.40
2008,05,17,12,14,21.40
2008,05,17,12,15,21.40
2008,05,17,12,16,21.30
2008,05,17,12,17,21.30
2008,05,17,12,18,21.30
2008,05,17,12,19,21.40
2008,05,17,12,20,21.40
2008,05,17,12,21,21.40
2008,05,17,12,22,21.40
2008,05,17,12,23,21.40
2008,05,17,12,24,21.40
2008,05,17,12,25,21.40
2008,05,17,12,26,21.40
2008,05,17,12,27,21.50
2008,05,17,12,28,21.60
2008,05,17,12,29,21.60
2008,05,17,12,30,21.60
2008,05,17,12,31,21.60
2008,05,17,12,32,21.50
2008,05,17,12,33,21.30
2008,05,17,12,34,21.30
2008,05,17,12,35,21.30
2008,05,17,12,36,21.30
2008,05,17,12,37,21.40
2008,05,17,12,38,21.50
2008,05,17,12,39,21.60
2008,05,17,12,40,21.60
2008,05,17,12,41,21.70
2008,05,17,12,42,21.80
2008,05,17,12,43,21.90
2008,05,17,12,44,21.90
2008,05,17,12,45,22.00
2008,05,17,12,46,22.00
2008,05,17,12,47,22.10
2008,05,17,12,48,22.10
2008,05,17,12,49,22.10
2008,05,17,12,50,22.10
2008,05,17,12,51,22.20
2008,05,17,12,52,22.30
2008,05,17,12,53,22.30
2008,05,17,12,54,22.50
2008,05,17,12,55,22.60
2008,05,17,12,56,22.70
2008,05,17,12,57,22.80
2008,05,17,12,58,22.80
2008,05,17,12,59,22.80
2008,05,17,13,00,22.70
2008,05,17,13,01,22.70
2008,05,17,13,02,22.80
2008,05,17,13,03,22.80
2008,05,17,13,04,22.90
2008,05,17,13,05,22.90
2008,05,17,13,06,22.90
2008,05,17,13,07,22.80
2008,05,17,13,08,22.80
2008,05,17,13,09,22.80
2008,05,17,13,10,22.80
2008,05,17,13,11,22.80
2008,05,17,13,12,22.80
2008,05,17,13,13,22.90
2008,05,17,13,14,23.00
2008,05,17,13,15,23.10
2008,05,17,13,16,23.10
2008,05,17,13,17,23.10
2008,05,17,13,18,23.10
2008,05,17,13,19,23.10
2008,05,17,13,20,23.10
2008,05,17,13,21,23.10
2008,05,17,13,22,23.10
2008,05,17,13,23,23.30
2008,05,17,13,24,23.30
2008,05,17,13,25,23.40
2008,05,17,13,26,23.40
2008,05,17,13,27,23.50
2008,05,17,13,28,23.40
2008,05,17,13,29,23.30
2008,05,17,13,30,23.30
2008,05,17,13,31,23.20
2008,05,17,13,32,23.20
2008,05,17,13,33,23.20
2008,05,17,13,34,23.30
2008,05,17,13,35,23.40
2008,05,17,13,36,23.50
2008,05,17,13,37,23.70
2008,05,17,13,38,23.70
2008,05,17,13,39,23.80
2008,05,17,13,40,23.80
2008,05,17,13,41,23.90
2008,05,17,13,42,23.90
2008,05,17,13,43,23.80
2008,05,17,13,44,23.70
2008,05,17,13,45,23.70
2008,05,17,13,46,23.60
2008,05,17,13,47,23.50
2008,05,17,13,48,23.30
2008,05,17,13,49,23.30
2008,05,17,13,50,23.20
2008,05,17,13,51,23.20
2008,05,17,13,52,23.20
2008,05,17,13,53,23.20
2008,05,17,13,54,23.20
2008,05,17,13,55,23.20
2008,05,17,13,56,23.30
2008,05,17,13,57,23.30
2008,05,17,13,58,23.30
2008,05,17,13,59,23.50
2008,05,17,14,00,23.70
2008,05,17,14,01,23.80
2008,05,17,14,02,23.80
2008,05,17,14,03,23.80
2008,05,17,14,04,23.70
2008,05,17,14,05,23.70
2008,05,17,14,06,23.70
2008,05,17,14,07,23.80
2008,05,17,14,08,23.80
2008,05,17,14,09,23.50
2008,05,17,14,10,23.20
2008,05,17,14,11,22.90
2008,05,17,14,12,22.70
2008,05,17,14,13,22.50
2008,05,17,14,14,22.20
2008,05,17,14,15,21.80
2008,05,17,14,16,21.50
2008,05,17,14,17,21.30
2008,05,17,14,18,21.10
2008,05,17,14,19,21.10
2008,05,17,14,20,21.10
2008,05,17,14,21,21.10
2008,05,17,14,22,21.10
2008,05,17,14,23,21.20
2008,05,17,14,24,21.20
2008,05,17,14,25,21.10
2008,05,17,14,26,21.00
2008,05,17,14,27,20.90
2008,05,17,14,28,20.70
2008,05,17,14,29,20.60
2008,05,17,14,30,20.60
2008,05,17,14,31,20.50
2008,05,17,14,32,20.40
2008,05,17,14,33,20.30
2008,05,17,14,34,20.30
2008,05,17,14,35,20.40
2008,05,17,14,36,20.50
2008,05,17,14,37,20.70
2008,05,17,14,38,20.70
2008,05,17,14,39,20.90
2008,05,17,14,40,21.00
2008,05,17,14,41,21.10
2008,05,17,14,42,21.30
2008,05,17,14,43,21.20
2008,05,17,14,44,21.10
2008,05,17,14,45,21.00
2008,05,17,14,46,21.00
2008,05,17,14,47,21.10
2008,05,17,14,48,21.00
2008,05,17,14,49,20.90
2008,05,17,14,50,20.80
2008,05,17,14,51,20.80
2008,05,17,14,52,20.80
2008,05,17,14,53,20.90
2008,05,17,14,54,20.90
2008,05,17,14,55,20.80
2008,05,17,14,56,20.70
2008,05,17,14,57,20.70
2008,05,17,14,58,20.60
2008,05,17,14,59,20.70
2008,05,17,15,00,20.70
2008,05,17,15,01,20.60
2008,05,17,15,02,20.50
2008,05,17,15,03,20.40
2008,05,17,15,04,20.20
2008,05,17,15,05,20.10
2008,05,17,15,06,19.90
2008,05,17,15,07,19.70
2008,05,17,15,08,19.60
2008,05,17,15,09,19.60
2008,05,17,15,10,19.50
2008,05,17,15,11,19.40
2008,05,17,15,12,19.40
2008,05,17,15,13,19.30
2008,05,17,15,14,19.30
2008,05,17,15,15,19.30
2008,05,17,15,16,19.40
2008,05,17,15,17,19.60
2008,05,17,15,18,19.80
2008,05,17,15,19,19.80
2008,05,17,15,20,19.90
2008,05,17,15,21,19.90
2008,05,17,15,22,19.90
2008,05,17,15,23,19.90
2008,05,17,15,24,20.10
2008,05,17,15,25,20.20
2008,05,17,15,26,20.30
2008,05,17,15,27,20.40
2008,05,17,15,28,20.50
2008,05,17,15,29,20.50
2008,05,17,15,30,20.50
2008,05,17,15,31,20.50
2008,05,17,15,32,20.50
2008,05,17,15,33,20.60
2008,05,17,15,34,20.60
2008,05,17,15,35,20.60
2008,05,17,15,36,20.60
2008,05,17,15,37,20.60
2008,05,17,15,38,20.60
2008,05,17,15,39,20.70
2008,05,17,15,40,20.80
2008,05,17,15,41,20.90
2008,05,17,15,42,21.00
2008,05,17,15,43,21.00
2008,05,17,15,44,21.10
2008,05,17,15,45,21.20
2008,05,17,15,46,21.30
2008,05,17,15,47,21.40
2008,05,17,15,48,21.40
2008,05,17,15,49,21.30
2008,05,17,15,50,21.30
2008,05,17,15,51,21.30
2008,05,17,15,52,21.30
2008,05,17,15,53,21.40
2008,05,17,15,54,21.40
2008,05,17,15,55,21.30
2008,05,17,15,56,21.40
2008,05,17,15,57,21.40
2008,05,17,15,58,21.50
2008,05,17,15,59,21.60
2008,05,17,16,00,21.70
2008,05,17,16,01,21.70
2008,05,17,16,02,21.70
2008,05,17,16,03,21.70
2008,05,17,16,04,21.60
2008,05,17,16,05,21.70
2008,05,17,16,06,21.70
2008,05,17,16,07,21.60
2008,05,17,16,08,21.40
2008,05,17,16,09,21.10
2008,05,17,16,10,20.70
2008,05,17,16,11,20.20
2008,05,17,16,12,19.60
2008,05,17,16,13,19.00
2008,05,17,16,14,18.50
2008,05,17,16,15,18.20
2008,05,17,16,16,18.00
2008,05,17,16,17,17.80
2008,05,17,16,18,17.70
2008,05,17,16,19,17.70
2008,05,17,16,20,17.70
2008,05,17,16,21,17.70
2008,05,17,16,22,17.70
2008,05,17,16,23,17.70
2008,05,17,16,24,17.70
2008,05,17,16,25,17.90
2008,05,17,16,26,17.80
2008,05,17,16,27,17.80
2008,05,17,16,28,17.70
2008,05,17,16,29,17.70
2008,05,17,16,30,17.50
2008,05,17,16,31,17.60
2008,05,17,16,32,17.60
2008,05,17,16,33,17.60
2008,05,17,16,34,17.50
2008,05,17,16,35,17.40
2008,05,17,16,36,17.50
2008,05,17,16,37,17.50
2008,05,17,16,38,17.70
2008,05,17,16,39,17.80
2008,05,17,16,40,17.80
2008,05,17,16,41,17.90
2008,05,17,16,42,17.90
2008,05,17,16,43,17.90
2008,05,17,16,44,17.90
2008,05,17,16,45,18.00
2008,05,17,16,46,18.10
2008,05,17,16,47,18.10
2008,05,17,16,48,18.20
2008,05,17,16,49,18.20
2008,05,17,16,50,18.20
2008,05,17,16,51,18.20
2008,05,17,16,52,18.10
2008,05,17,16,53,18.10
2008,05,17,16,54,18.20
2008,05,17,16,55,18.20
2008,05,17,16,56,18.20
2008,05,17,16,57,18.10
2008,05,17,16,58,18.10
2008,05,17,16,59,18.10
2008,05,17,17,00,18.10
2008,05,17,17,01,18.00
2008,05,17,17,02,17.90
2008,05,17,17,03,18.10
2008,05,17,17,04,18.20
2008,05,17,17,05,18.30
2008,05,17,17,06,18.40
2008,05,17,17,07,18.50
2008,05,17,17,08,18.50
2008,05,17,17,09,18.50
2008,05,17,17,10,18.50
2008,05,17,17,11,18.60
2008,05,17,17,12,18.80
2008,05,17,17,13,19.00
2008,05,17,17,14,19.20
2008,05,17,17,15,19.50
2008,05,17,17,16,19.70
2008,05,17,17,17,19.80
2008,05,17,17,18,19.90
2008,05,17,17,19,19.90